Location: Ergnies
(50.0854°N, 2.0375°E)
Time: 09:59:36
(UTC+00:00)

Meteor 2-10 Rocket - Pass Details

Date: 14 January 2026
Orbit: 733 x 881 km, 81.2° (Epoch: 17 February)

Event Time Altitude Azimuth Distance (km) Brightness Sun altitude
Rises 05:50:31 0° 193° (SSW) 3,167 6.7 -17.8°
Reaches altitude 10° 05:52:49 10° 194° (SSW) 2,260 5.9 -17.4°
Maximum altitude 05:57:53 83° 283° (WNW) 777 3.4 -16.6°
Drops below altitude 10° 06:03:12 10° 11° (N) 2,357 6.0 -15.8°
Sets 06:05:38 0° 12° (NNE) 3,314 6.8 -15.4°
